This demonstration page uses our WeatherBlox Daily Observations layout. Learn more.

Left ArrowRight Arrow

41.86663, -103.66717

Hourly Observations for June 7, 2020

Temp ( °F °C ) Dew Point ( °F °C ) Humidity (%) Winds ( mph kmh ) Pressure ( in mb ) Visibility ( mi km ) Precip ( " mm )
12:53 am 00:53 Clear 55 12.8 53 11.7 93 93 E 7 11 29.57 1001 10 16 0.00 0.00
1:53 am 01:53 Clear 54 12.2 51 10.6 90 90 Calm 29.55 1001 10 16 0.00 0.00
2:53 am 02:53 Clear 53 11.7 50 10 89 89 NE 5 7 29.53 1000 10 16 0.00 0.00
3:53 am 03:53 Clear 52 11.1 50 10 93 93 E 6 9 29.51 999 10 16 0.00 0.00
4:53 am 04:53 Clear 53 11.7 49 9.4 86 86 Calm 29.50 999 10 16 0.00 0.00
5:53 am 05:53 Sunny 52 11.1 49 9.4 89 89 Calm 29.54 1000 10 16 0.00 0.00
6:53 am 06:53 Sunny 58 14.4 53 11.7 84 84 N 5 7 29.54 1000 10 16 0.00 0.00
7:53 am 07:53 Sunny 63 17.2 54 12.2 73 73 WNW 12 19 29.54 1000 10 16 0.00 0.00
8:53 am 08:53 Sunny 70 21.1 54 12.2 57 57 WNW 14 22 29.53 1000 10 16 0.00 0.00
9:53 am 09:53 Sunny 78 25.6 51 10.6 39 39 WNW 15 24 29.51 999 10 16 0.00 0.00
10:53 am 10:53 Sunny 83 28.3 46 7.8 27 27 WNW 15 24 29.49 999 10 16 0.00 0.00
11:53 am 11:53 Sunny 86 30 44 6.7 23 23 NW 12 19 29.47 998 10 16 0.00 0.00
12:53 pm 12:53 Sunny 89 31.7 42 5.6 19 19 WNW 10 17 29.46 998 10 16 0.00 0.00
1:53 pm 13:53 Sunny 89 31.7 46 7.8 23 23 VRB 3 6 29.43 997 10 16 0.00 0.00
2:53 pm 14:53 Sunny 90 32.2 43 6.1 19 19 SE 8 13 29.39 995 10 16 0.00 0.00
3:53 pm 15:53 Sunny 91 32.8 43 6.1 19 19 SSE 8 13 29.36 994 10 16 0.00 0.00
4:53 pm 16:53 Sunny 90 32.2 44 6.7 20 20 VRB 5 7 29.32 993 10 16 0.00 0.00
5:42 pm 17:42 Sunny 82 28 45 7 26 26 NNE 22 35 29.17 988 10 16 0.00 0.00
5:53 pm 17:53 Sunny 85 29.4 45 7.2 25 25 NNE 24 39 29.33 993 10 16 0.00 0.00
6:53 pm 18:53 Sunny 79 26.1 44 6.7 29 29 NNE 30 48 29.32 993 10 16 0.00 0.00
7:53 pm 19:53 Sunny 75 23.9 44 6.7 33 33 N 16 26 29.35 994 10 16 0.00 0.00
8:53 pm 20:53 Clear 71 21.7 46 7.8 41 41 WNW 8 13 29.39 995 10 16 0.00 0.00
9:53 pm 21:53 Clear 72 22.2 47 8.3 41 41 WNW 13 20 29.42 996 10 16 0.00 0.00
10:53 pm 22:53 Clear 64 17.8 45 7.2 50 50 NW 14 22 29.48 998 10 16 0.00 0.00
11:53 pm 23:53 Clear 62 16.7 44 6.7 52 52 NW 17 28 29.51 999 10 16 0.00 0.00

Powered by AerisWeather